THOR 7

Last updated on Tue Sep 22 2026 00:03:13 GMT+0000 (Coordinated Universal Time)

1 40613U 15022A 26264.27508972 -.00000012 00000+0 00000+0 0 9996 2 40613 0.0104 167.7035 0002659 11.4404 279.4058 1.00272780 41777
UTC large
Height (km)
Speed (km/s)
/
Latitude / Longitude
Inclination (degrees)
Orbital Period (minutes)
Azimuth
Elevation
Range (km)
Doppler Factor

Next 0 passes for location: London (51.5072 / 0.1276)

No passes found over London.
THOR 7